Regional Weather Roundup
Issued by NWS Cleveland, OH

Home | Current Version | Previous Version | Graphics & Text | Print | Product List | Glossary On
Versions: 1 2 3 4 5 6 7 8 9 10 11 12 13 14 15 16 17 18 19 20 21 22 23 24 25 26 27 28 29 30 31 32 33 34 35 36 37 38 39 40 41 42 43 44 45 46 47 48 49 50
000
ASUS41 KCLE 270410
RWRCLE
OHIO REGIONAL WEATHER ROUNDUP
NATIONAL WEATHER SERVICE WILMINGTON, OH
1200 AM EDT MON APR 27 2015

NOTE: "FAIR" INDICATES FEW OR NO CLOUDS BELOW 12,000 FEET WITH NO
SIGNIFICANT WEATHER AND/OR OBSTRUCTIONS TO VISIBILITY.

OHZ001>008-015>018-024>027-034-035-043-044-270500-
   NORTHWEST OHIO

CITY           SKY/WX    TMP DP  RH WIND       PRES   REMARKS
DEFIANCE       CLOUDY    50  32  50 CALM      29.92S
FINDLAY        MOCLDY    46  32  58 E7        29.91R
TOLEDO EXPRESS CLOUDY    46  35  65 E6        29.92R
TOLEDO EXEC    MOCLDY    46  33  60 NE8       29.94R
LIMA           CLOUDY    47  34  60 E5        29.91S
$$

OHZ009>014-019>023-028>033-038-089-270500-
   NORTHEAST OHIO

CITY           SKY/WX    TMP DP  RH WIND       PRES   REMARKS
CLE-HOPKINS    CLEAR     41  32  70 N7        29.92S
CLE-LAKEFRONT  CLEAR     43  34  70 N10       29.89S
CUY CO. ARPT   NOT AVBL
LORAIN-ELYRIA  CLEAR     41  31  67 N6        29.91R
ASHTABULA      CLEAR     40  32  73 NW6       29.87R
AKRON-CANTON   CLEAR     38  29  70 NW6       29.88R
WOOSTER        CLEAR     35  30  82 NW3       29.89S
MANSFIELD      CLEAR     39  30  70 CALM      29.90S
YOUNGSTOWN     PTCLDY    40  30  67 W5        29.85S
$$

OHZ042-051>053-060>062-070>072-077>081-270500-
  SOUTHWEST OHIO

CITY           SKY/WX    TMP DP  RH WIND       PRES   REMARKS
CINC-COVINGTON CLEAR     43  34  70 CALM      29.91R
CINC-LUNKEN    CLEAR     42  40  92 CALM      29.92R
HAMILTON       CLEAR     40  36  86 NW3       29.93R
DAYTON         PTCLDY    45  32  60 CALM      29.92S
WRIGHT-PAT AFB CLEAR     42  36  78 CALM      29.91S
DAYTON GENERAL CLEAR     46  32  58 CALM      29.90S
WILMINGTON     CLEAR     43  32  65 N5        29.90S
$$

OHZ036-037-039>041-045>050-054>059-063>069-073>076-082>088-270500-
  CENTRAL AND SOUTHEAST OHIO

CITY           SKY/WX    TMP DP  RH WIND       PRES   REMARKS
COLUMBUS       CLEAR     44  31  60 N3        29.90S
OSU AIRPORT    CLEAR     44  30  57 N5        29.90S
BOLTON FIELD   CLEAR     42  31  67 N5        29.91S
RICKENBACK AFB CLEAR     44  31  59 N6        29.90S
NEWARK         CLEAR     44  29  55 N5        29.89S
MARION         CLEAR     39  31  72 NE3       29.91S
LANCASTER      CLEAR     40  33  76 CALM      29.90S
ZANESVILLE     CLEAR     43  28  55 N6        29.88S
NEW PHILLY     CLEAR     45  31  58 CALM      29.88S
$$


USA.gov is the U.S. government's official web portal to all federal, state and local government web resources and services.